Theta_e
331 330 331 330 331 331 330 329 329 328 327 326 326 325 324 324 324 324 325 325 325 325 325 325 326 326 326 327 328 328 328 330 330 330 330 330 329 326 320 324 329 330 327 328 328 326 324 323 321 320 321 322 320 320 319 318 318 317 316 316 316 315 315 314 314 314 313 314 314 313 313 313 312 312 312 311 312 311 311 311 311 310 310 309 310
330 330 330 330 331 331 330 330 328 327 326 325 325 324 324 323 324 324 324 324 324 324 323 324 324 325 325 325 326 325 326 327 328 329 330 329 329 329 316 321 326 330 329 327 327 327 325 323 324 323 322 321 321 320 319 318 318 317 317 316 316 315 314 314 314 313 313 313 313 313 312 312 312 311 311 311 311 311 310 310 310 308 309 309 308
330 330 329 330 330 330 329 329 328 326 326 326 324 324 324 323 323 323 323 324 323 323 323 324 324 324 324 324 325 325 325 326 326 328 328 328 329 329 329 317 322 327 330 328 327 327 326 324 324 326 324 323 322 321 320 319 318 317 316 317 316 316 315 314 314 313 313 312 312 312 312 311 311 311 310 311 310 310 310 309 309 309 309 308 308
331 330 329 330 329 328 329 328 327 327 325 325 323 323 322 322 322 323 323 323 323 323 323 322 323 323 323 323 324 323 324 325 325 326 327 328 328 329 328 328 319 320 325 329 328 327 327 326 325 324 324 324 322 319 318 320 321 319 318 317 317 316 316 314 313 313 313 312 312 312 312 311 311 310 310 310 310 309 309 309 308 308 308 308 308
330 330 329 329 329 329 328 328 328 327 325 323 322 322 321 320 320 320 321 321 321 321 321 321 321 322 321 322 322 322 323 323 324 325 325 327 328 328 327 327 328 318 317 320 327 329 327 326 326 325 324 322 322 322 321 321 319 321 321 320 317 317 315 315 313 313 313 313 313 312 312 311 311 310 310 309 309 309 309 308 308 308 307 307 308
329 329 329 328 328 328 327 327 328 327 324 322 321 321 320 319 318 318 316 318 319 320 319 319 319 319 319 320 320 321 322 322 322 323 324 325 326 327 327 328 327 327 327 319 319 321 326 326 327 325 325 325 324 323 324 324 322 319 319 318 319 318 317 316 316 314 314 314 313 313 312 311 310 310 310 309 309 309 308 308 308 307 307 306 307
329 327 327 327 327 326 326 326 327 325 322 321 321 319 319 318 318 316 317 317 318 319 318 318 318 317 318 318 319 319 318 319 321 321 321 323 323 323 325 326 327 328 326 325 317 317 319 324 326 325 325 326 326 325 325 323 322 322 320 319 319 319 318 317 316 315 315 314 314 313 312 311 311 310 310 309 309 308 308 308 307 307 307 306 307
327 327 326 326 326 325 325 325 324 322 321 319 319 318 318 318 317 317 316 316 316 317 317 317 317 317 318 317 318 317 317 318 318 319 320 321 322 322 322 323 325 326 321 324 323 318 316 316 321 326 325 325 324 325 325 326 325 324 323 321 320 319 318 317 316 316 316 315 314 313 312 311 311 310 310 309 309 308 308 308 307 307 307 307 307
326 325 325 324 324 324 324 324 323 321 321 320 318 318 317 315 316 316 317 316 316 316 316 316 316 316 317 316 316 315 315 315 315 316 316 317 319 320 320 321 321 314 322 322 321 320 316 315 319 322 323 325 324 325 325 326 326 325 324 323 322 322 320 318 317 317 316 315 313 312 312 311 311 310 309 309 309 308 308 308 307 307 307 307 307
328 325 324 322 322 322 323 322 322 321 321 319 317 317 315 315 315 316 316 315 314 314 314 313 314 315 314 314 314 313 314 316 316 313 316 317 317 319 320 321 321 321 321 322 323 321 322 319 315 315 314 316 323 325 325 325 325 325 325 323 323 323 322 320 318 317 316 315 314 313 312 311 311 310 309 309 309 308 307 308 307 307 307 307 306
329 327 325 324 323 323 322 322 322 322 321 319 318 318 317 317 316 316 314 313 312 313 313 312 312 312 312 310 310 310 312 312 312 312 313 314 315 317 318 319 319 319 320 320 321 322 322 322 322 322 320 315 320 324 324 324 324 325 325 324 324 323 322 321 319 317 316 315 315 314 313 312 311 310 309 309 309 308 307 307 307 306 306 307 306
328 327 327 327 326 323 323 323 322 320 319 319 318 317 316 314 315 314 310 309 309 310 310 310 310 308 307 307 306 306 308 309 309 309 309 310 312 314 314 316 317 317 317 318 319 319 320 321 321 321 321 318 315 318 322 323 324 324 325 325 324 324 322 321 319 318 317 315 315 314 313 312 311 310 309 309 309 308 308 307 306 306 306 307 306
329 330 328 325 327 326 324 323 320 318 318 319 320 319 318 315 314 311 309 307 307 309 310 309 307 306 306 305 305 306 306 306 307 307 307 309 310 311 312 313 315 315 315 315 316 316 316 317 319 320 320 320 317 313 315 318 319 323 323 323 325 325 324 323 322 320 319 316 316 315 314 313 311 310 310 309 308 308 307 307 307 307 307 306 305
329 329 328 327 325 325 324 323 321 319 319 319 319 317 317 312 312 311 310 308 309 311 309 306 303 303 304 306 309 308 307 307 306 306 307 308 309 310 311 312 312 313 314 313 313 313 313 314 315 316 317 318 318 319 318 316 316 321 323 323 323 324 324 324 323 320 319 318 316 315 315 313 312 311 311 309 308 307 307 306 307 307 306 306 305
332 329 328 327 325 324 323 324 322 321 318 318 319 318 315 313 313 312 311 309 309 310 309 307 305 307 307 305 304 306 312 308 309 308 308 308 308 309 309 309 310 311 312 311 310 310 311 312 312 313 314 315 315 315 316 312 314 312 319 321 323 324 324 324 324 321 320 319 318 316 315 314 313 312 311 310 308 307 307 307 307 306 305 306 305
333 331 329 328 327 326 325 326 326 323 320 319 319 317 316 315 313 311 312 307 306 307 308 308 307 307 303 304 306 305 304 309 311 311 309 309 308 308 308 308 309 309 308 308 309 309 310 311 311 311 311 312 312 311 310 311 310 307 307 312 318 323 323 324 325 323 321 320 319 318 316 314 314 313 312 310 309 308 308 307 307 307 306 305 305
335 334 329 329 330 329 327 327 326 322 319 317 318 316 314 314 312 311 311 310 309 309 308 307 306 308 309 308 304 302 303 308 307 308 312 309 308 308 308 308 308 307 306 307 307 308 309 310 311 311 309 309 310 308 308 307 308 308 308 304 308 316 320 322 324 324 323 321 320 319 317 316 315 314 313 312 311 309 309 308 307 306 305 305 305
335 335 335 330 330 330 329 328 326 323 319 318 319 319 317 315 313 312 310 311 313 312 309 305 305 306 308 311 312 308 309 306 306 305 309 311 311 309 308 307 308 307 307 306 307 307 308 309 310 308 308 307 308 308 307 306 304 306 307 309 309 311 315 320 322 324 323 321 320 319 318 317 315 315 313 313 312 310 309 308 308 306 305 305 304
333 335 335 335 333 332 331 329 328 326 323 320 319 317 316 316 316 314 312 312 311 310 310 308 304 305 307 309 309 309 309 307 306 309 307 310 306 306 306 305 305 305 306 307 307 308 308 308 308 308 307 306 306 306 305 305 304 304 306 307 311 310 311 312 317 320 322 322 322 321 320 318 316 315 314 313 312 311 310 308 307 306 305 304 304
331 332 333 333 333 332 332 331 329 328 324 321 320 319 318 316 314 314 315 315 313 309 310 313 307 306 304 304 305 306 307 309 309 306 305 301 304 304 303 304 303 303 304 305 307 307 306 306 307 307 306 304 305 304 304 304 304 304 304 308 310 310 311 312 312 313 317 321 322 321 321 319 319 317 315 314 313 312 310 309 307 306 304 304 303
330 330 330 332 331 331 331 331 329 329 323 324 323 322 320 319 317 314 314 314 313 312 312 313 310 308 303 302 304 305 306 307 307 306 301 300 301 303 305 305 302 302 302 304 305 304 303 304 305 305 304 304 304 303 302 302 304 303 304 307 310 313 313 313 312 311 312 312 315 319 319 318 318 319 318 316 312 311 310 309 307 305 305 304 303
326 327 328 329 330 330 330 329 329 330 325 326 324 322 321 320 320 316 315 314 313 312 312 312 313 310 310 311 305 304 305 305 304 304 304 303 300 302 306 306 303 303 301 302 301 301 301 303 303 303 303 303 303 302 302 301 301 301 302 304 306 310 314 315 313 312 310 311 311 311 314 316 317 317 320 319 314 312 310 309 307 305 305 304 303
323 324 325 326 327 327 328 328 328 327 325 327 325 324 323 322 322 321 317 315 315 314 311 311 311 311 310 310 310 306 305 305 306 305 304 300 299 298 301 303 303 304 306 303 302 301 300 301 300 301 302 303 302 301 300 300 300 299 300 302 304 306 309 311 313 312 311 310 310 309 310 310 312 314 316 315 314 313 312 309 306 305 305 304 302
320 320 321 323 324 324 325 325 325 326 325 326 327 327 326 324 323 321 320 318 317 315 314 311 310 311 311 310 309 310 309 308 309 307 303 302 303 303 303 306 306 307 308 307 303 300 300 300 301 301 302 302 301 300 299 299 299 297 298 300 303 305 307 309 313 312 311 309 308 308 309 309 309 310 312 313 313 312 311 309 307 305 304 303 302
319 319 321 322 322 321 322 322 322 323 323 324 324 325 326 325 324 322 321 319 317 316 314 314 313 312 312 313 313 311 309 310 309 308 307 306 304 303 305 306 303 305 307 308 305 302 302 302 303 303 302 302 302 300 299 298 297 297 296 297 299 301 303 307 312 312 311 309 308 306 306 307 308 308 309 309 308 308 309 309 308 306 304 303 301
318 318 320 320 321 320 320 321 321 322 322 322 323 323 324 323 323 322 321 321 320 317 315 315 314 313 312 311 312 313 312 312 310 309 307 306 305 304 304 305 305 304 307 306 306 302 302 302 303 302 301 301 300 300 299 296 296 295 295 296 297 299 301 304 307 310 310 307 307 305 305 304 304 304 304 305 304 304 304 305 306 305 304 301 300
317 318 318 318 318 319 319 319 319 320 320 320 320 320 321 321 321 321 321 322 322 320 317 316 315 316 315 313 313 312 311 310 309 308 308 306 306 306 304 301 302 304 303 305 305 300 303 302 301 301 301 300 300 299 297 296 295 295 294 294 295 296 298 301 305 308 310 307 306 304 303 302 302 302 302 303 303 301 301 302 303 302 300 299 299
315 315 316 316 316 316 316 317 317 318 318 318 318 318 319 318 318 319 318 320 319 319 319 319 317 317 317 316 314 313 313 311 309 308 308 307 307 307 307 304 301 297 302 302 303 304 304 303 303 302 301 300 300 299 297 296 296 295 293 294 294 294 296 299 303 306 308 307 305 303 302 301 301 302 301 300 300 300 300 300 299 298 297 297 297
313 313 312 313 313 313 314 314 315 315 316 316 316 316 317 316 316 316 316 317 318 317 317 316 316 317 316 316 315 314 313 313 311 310 309 308 307 307 307 305 304 300 298 298 301 302 305 303 302 302 301 301 300 300 298 297 296 294 293 292 292 292 294 297 300 304 305 306 304 303 301 300 301 300 299 299 299 299 298 297 296 296 296 295 295
311 311 310 310 311 309 311 311 312 313 313 314 314 314 314 314 314 314 315 315 315 315 315 315 314 315 314 314 314 313 313 312 312 312 311 309 307 306 306 305 305 302 301 298 299 303 304 304 303 303 298 300 299 299 297 295 294 293 293 292 292 292 293 295 298 300 302 304 304 301 300 300 299 298 297 298 297 297 297 296 296 295 295 295 296
308 309 308 308 308 309 309 309 310 310 311 312 312 312 312 311 311 311 312 313 312 311 312 312 313 313 312 312 312 312 312 312 312 311 310 309 308 308 307 306 305 304 303 301 297 301 306 304 301 302 300 298 297 296 295 294 293 292 293 292 292 291 291 292 294 297 299 301 303 300 300 299 298 297 297 297 295 296 296 295 295 294 295 295 297
306 306 306 306 306 306 307 307 308 308 309 309 309 310 309 309 309 309 310 310 309 309 309 311 310 311 310 310 310 311 312 311 310 309 310 310 310 309 307 306 305 304 303 301 298 298 304 304 305 300 299 295 295 293 293 293 293 291 293 292 292 290 290 291 292 295 297 299 302 300 298 298 298 298 297 296 295 296 295 294 294 295 295 295 296
304 304 304 304 305 305 305 305 306 306 306 307 308 307 307 306 307 307 307 307 307 307 308 308 309 309 308 308 308 309 310 309 309 308 308 308 308 307 307 306 306 305 303 299 297 297 301 300 301 298 296 295 292 293 291 291 291 291 291 292 291 290 290 290 291 293 295 298 301 299 298 297 297 297 296 294 294 294 294 294 294 294 294 294 294
302 301 302 303 303 303 304 304 304 304 305 305 305 305 304 304 304 304 304 304 304 304 305 305 306 306 307 306 306 307 307 307 307 305 305 305 305 304 304 304 304 303 302 299 298 298 297 301 297 295 294 294 292 291 291 290 289 289 289 290 290 290 289 289 290 292 295 298 300 297 297 297 296 295 294 293 293 293 294 294 293 294 294 293 292
300 300 300 300 301 301 301 302 302 303 303 303 303 303 302 302 301 302 303 303 302 302 302 303 303 304 303 304 304 304 305 303 302 302 302 302 302 302 301 300 300 300 300 299 298 296 297 298 301 296 292 290 291 292 290 291 290 289 288 289 289 289 288 288 289 290 294 296 298 298 297 296 295 294 293 293 293 293 293 293 293 293 293 292 290
298 299 299 299 299 299 299 300 301 300 300 300 300 301 301 301 300 300 301 301 302 301 301 301 302 302 301 300 300 301 301 300 300 300 301 300 300 300 299 299 298 298 298 298 298 297 297 296 298 297 294 289 290 291 290 290 289 288 288 288 288 287 286 287 287 288 291 295 296 296 296 295 294 293 293 292 293 293 293 293 292 291 291 289 288
297 297 298 298 298 298 298 299 299 299 300 300 300 300 300 300 300 300 300 300 300 300 301 301 298 300 300 299 299 299 299 298 298 298 299 298 298 298 298 298 297 297 297 297 297 297 296 295 296 294 290 290 289 288 288 286 286 286 287 286 286 285 285 286 287 289 292 294 295 295 294 293 293 293 292 292 293 292 292 292 291 290 288 287 286
296 297 297 297 297 297 297 297 298 298 298 299 299 299 299 299 299 299 299 299 299 299 299 299 299 299 299 299 299 299 298 298 298 298 298 297 297 297 296 296 297 297 296 296 297 296 296 295 294 294 288 287 286 286 287 286 285 283 283 284 284 284 285 285 287 288 290 290 290 291 291 291 291 292 292 292 292 292 291 290 289 288 286 286 285
296 296 296 296 296 296 296 297 297 297 297 297 298 298 299 299 299 298 298 298 297 297 297 297 298 298 298 298 297 298 297 298 298 297 297 296 296 295 295 296 296 296 295 296 296 295 294 293 293 294 291 287 287 285 286 286 285 284 282 281 281 283 284 285 285 286 287 287 289 290 288 288 290 290 291 291 291 291 290 289 287 286 285 285 285
295 295 295 295 296 296 296 296 297 297 296 296 297 297 297 297 297 296 296 295 295 295 295 296 296 296 296 296 297 297 297 297 297 297 297 296 296 295 296 295 296 295 295 294 294 293 292 292 292 292 290 286 285 285 285 284 283 282 283 282 280 280 282 284 285 284 285 285 285 286 288 289 289 289 290 289 290 290 289 287 285 284 283 284 284
295 294 294 295 294 295 296 296 296 297 297 297 298 297 296 296 296 296 296 296 295 295 295 295 295 296 296 296 296 297 296 293 292 293 294 295 296 295 295 295 294 293 293 293 293 292 292 291 291 291 288 285 284 282 281 281 281 281 282 283 281 281 282 282 284 285 285 284 284 285 285 286 285 286 286 286 287 288 286 284 283 283 283 284 284
293 293 293 293 294 294 294 294 295 296 296 297 293 291 292 293 294 295 295 295 295 294 294 294 294 295 295 295 296 291 290 290 290 291 292 292 292 294 296 295 293 292 292 291 291 292 291 290 290 290 286 285 284 283 282 282 283 283 282 281 280 281 281 281 282 283 284 284 283 283 283 285 284 284 284 284 285 284 282 281 281 282 283 284 283
292 292 292 292 293 293 293 293 293 294 295 295 291 292 292 293 293 294 294 294 294 294 293 293 293 293 294 295 295 293 291 290 291 290 291 292 292 292 292 292 293 293 291 290 291 291 290 290 290 290 288 287 286 284 284 283 283 282 282 282 281 280 279 278 277 280 284 284 282 281 281 283 283 281 281 281 281 281 282 281 282 282 283 283 282
290 291 291 291 292 292 292 292 292 293 293 291 292 292 292 292 292 293 294 293 293 293 293 293 293 293 294 294 294 295 295 294 294 294 292 291 291 291 291 292 292 292 293 292 291 290 290 289 289 289 289 288 287 284 283 283 282 282 282 282 281 280 279 279 279 277 282 284 282 280 279 281 282 281 279 279 279 280 281 282 283 283 282 282 281
290 290 290 290 290 291 291 291 291 292 292 291 291 291 291 291 292 292 293 293 293 292 293 293 293 293 293 293 293 293 294 290 290 292 293 293 291 290 290 290 290 291 292 293 293 291 292 290 289 289 289 288 287 285 284 283 284 281 282 281 281 280 280 280 280 280 281 284 282 279 277 279 280 279 277 277 278 279 280 282 282 282 282 281 280
288 288 288 289 289 290 290 290 290 290 291 290 290 291 291 291 291 291 292 292 292 292 292 292 292 292 293 293 292 292 293 293 293 292 292 291 292 292 291 291 291 290 290 290 291 290 290 291 290 289 290 289 288 287 285 285 283 281 281 280 281 281 281 281 282 281 282 284 281 279 276 278 279 277 275 276 277 279 280 281 282 281 281 280 280
287 287 287 287 288 288 288 288 288 288 290 289 290 290 290 290 290 291 291 291 291 291 291 292 292 292 292 292 292 292 292 292 293 292 291 291 290 289 289 288 289 290 289 290 290 290 290 290 290 290 290 289 289 286 285 285 284 284 283 282 282 282 282 281 281 281 281 283 282 280 275 277 279 276 274 275 276 277 279 281 281 281 280 280 279
287 287 287 287 287 287 287 287 287 287 289 289 289 289 289 289 290 289 290 290 290 290 290 291 291 292 292 292 292 291 291 291 291 291 291 290 289 288 288 288 288 288 288 289 290 291 290 290 290 289 290 288 288 285 285 285 285 285 285 284 284 282 280 279 276 278 278 282 282 281 276 276 279 275 273 275 275 276 278 278 279 280 279 279 278
285 286 286 286 286 286 286 286 286 286 287 288 288 288 288 288 288 288 288 288 288 289 289 290 291 291 292 292 292 291 291 291 290 291 292 290 288 287 287 287 287 287 288 288 289 290 290 291 291 291 290 289 289 288 288 288 286 286 284 282 280 281 279 276 276 276 277 278 279 279 277 274 276 274 272 273 274 273 275 276 277 279 278 277 276
284 285 285 286 286 286 286 285 286 285 286 286 286 287 287 288 288 287 287 287 287 288 288 289 290 290 291 288 288 291 290 290 290 291 291 290 288 287 287 286 286 286 286 287 286 287 289 289 290 289 289 288 288 288 288 288 287 286 283 280 281 281 279 277 275 276 275 277 278 279 276 274 274 273 270 270 272 272 273 274 276 276 276 275 275
284 285 285 285 285 285 286 285 285 285 285 285 286 286 287 287 287 287 287 287 286 287 288 288 289 290 290 289 288 288 289 289 290 291 291 289 288 287 287 286 285 285 286 287 286 285 286 285 285 285 285 286 286 286 286 287 287 285 284 283 283 281 279 278 276 274 273 275 277 279 273 272 273 273 271 270 269 270 271 272 273 273 273 272 272
Wind_Speed
5 5 5 5 5 5 4 5 4 4 4 4 3 4 4 3 3 3 3 3 3 3 3 2 3 3 3 3 4 4 4 5 6 5 4 6 6 6 2 5 7 6 10 12 12 10 10 12 9 7 8 10 9 9 8 7 7 6 6 6 6 6 6 5 5 5 5 5 5 4 4 5 4 3 3 4 5 4 2 2 5 4 4 4 5
5 5 5 5 5 5 5 4 4 4 4 4 4 3 4 3 3 3 3 3 3 2 3 3 3 3 3 3 4 4 4 5 6 6 6 6 7 6 3 4 5 6 8 11 12 12 11 10 13 11 10 10 10 10 9 8 8 8 7 7 7 7 6 6 6 5 5 5 5 5 4 5 5 3 3 3 3 4 1 2 4 2 1 3 3
5 5 5 5 5 5 5 4 4 4 4 4 3 4 3 3 4 4 4 4 4 2 4 3 4 4 3 4 4 4 4 4 5 6 7 7 7 7 6 4 6 5 7 10 13 15 13 12 12 16 13 13 13 13 12 11 9 9 7 8 8 8 8 8 7 7 7 6 6 6 6 5 4 4 3 3 4 4 2 1 2 2 3 2 2
5 5 6 5 5 5 5 5 5 4 4 4 3 3 3 3 2 2 3 3 3 3 4 4 4 4 4 4 3 4 4 4 5 5 7 8 8 9 8 6 6 7 8 9 12 14 15 15 14 14 16 16 13 10 8 12 15 15 11 11 10 9 9 9 8 8 8 8 7 6 6 6 6 5 5 4 4 3 3 2 0 0 3 3 2
5 6 6 5 5 5 5 5 5 4 4 4 4 4 4 4 4 3 4 4 4 4 3 4 5 4 4 4 3 4 4 4 5 5 6 7 8 9 9 9 9 7 7 9 11 12 16 16 15 15 15 13 14 13 14 14 12 14 17 15 11 11 10 10 10 10 10 10 9 8 8 8 7 6 6 4 5 5 4 2 1 0 1 3 3
5 5 6 6 6 6 6 5 5 5 5 5 5 5 5 5 5 5 5 5 6 6 5 6 5 4 5 4 4 5 4 5 5 5 5 6 7 8 9 10 9 7 6 8 12 10 12 17 18 17 17 16 16 16 17 19 17 11 15 11 14 12 12 12 12 12 12 12 11 11 11 11 9 9 9 8 6 4 3 3 2 1 1 3 4
5 5 6 6 6 6 6 5 4 5 5 5 5 5 6 6 6 6 6 6 7 6 6 6 6 6 6 5 6 5 5 6 5 6 6 6 6 5 6 6 9 6 5 6 9 12 10 11 18 18 18 18 19 18 18 17 15 15 17 15 15 14 14 14 14 13 13 13 13 13 11 11 11 11 9 8 8 8 7 6 4 4 4 3 4
6 6 6 6 6 6 5 4 5 4 4 5 5 6 6 6 6 7 7 8 8 8 7 7 7 7 6 6 6 6 6 6 7 7 7 6 6 7 7 7 7 6 6 4 5 6 10 9 11 14 20 21 21 19 18 18 19 19 18 18 18 16 15 15 14 14 16 15 14 14 13 13 13 11 12 11 10 8 8 7 6 5 6 5 5
8 8 7 6 6 6 5 5 4 5 5 6 6 7 6 5 6 7 8 7 7 9 7 7 7 7 6 6 6 5 6 6 6 6 5 7 8 8 8 8 8 8 7 6 6 6 10 13 12 13 13 18 19 21 21 20 21 20 19 20 18 19 18 17 16 16 16 15 14 14 13 14 14 12 11 11 11 11 10 9 8 7 6 6 6
10 9 8 7 7 6 6 5 5 6 6 6 6 6 6 6 8 8 8 7 6 6 7 5 5 4 5 6 6 5 6 6 6 6 6 7 8 9 9 8 8 8 8 8 8 8 8 12 16 16 16 14 16 22 23 22 21 19 22 21 19 21 20 17 18 17 16 17 15 15 15 15 15 14 13 12 12 11 10 10 10 9 8 8 7
11 11 9 8 8 8 8 8 8 8 7 6 6 7 8 8 9 8 6 6 5 4 4 3 3 4 5 5 5 7 6 5 5 6 6 7 8 8 7 8 8 8 8 8 8 9 10 9 9 10 12 17 14 18 24 23 22 21 21 22 22 22 22 20 19 19 19 17 17 16 16 16 15 15 15 14 13 12 11 10 10 9 9 8 8
5 5 7 7 7 7 9 9 8 6 7 8 8 9 11 10 11 9 4 3 4 5 4 6 5 4 5 5 6 7 9 7 7 7 6 7 8 8 9 8 8 8 9 8 9 8 8 9 9 9 10 13 18 17 20 21 21 26 26 25 25 22 24 22 21 20 21 19 18 17 16 17 16 16 16 15 14 13 11 11 11 10 9 10 10
13 12 11 11 10 10 10 8 8 7 8 10 10 10 8 7 6 5 4 5 6 7 5 3 4 6 5 7 8 8 9 9 11 9 10 9 8 9 9 9 9 9 8 8 9 8 8 8 9 9 10 9 13 18 19 20 20 24 26 23 26 24 25 26 23 22 20 20 20 19 18 18 17 16 16 16 15 14 13 12 12 11 10 9 8
7 7 6 6 6 6 7 8 9 10 11 10 8 8 6 5 6 7 8 9 9 8 5 5 4 7 7 6 7 7 10 11 11 12 12 10 10 10 10 10 10 9 8 8 8 8 8 9 8 9 9 9 10 10 11 13 16 22 24 25 24 24 27 27 25 24 23 23 23 22 21 19 20 19 18 17 16 14 13 13 11 10 10 11 10
11 10 8 8 8 7 6 7 9 8 8 10 10 10 9 10 11 10 7 8 8 5 8 10 8 5 5 4 9 9 7 8 10 13 13 13 11 11 11 11 13 10 8 7 7 8 8 9 10 10 10 10 9 8 7 9 13 17 21 25 25 27 28 29 26 24 24 23 24 24 24 23 22 21 19 18 17 16 14 13 12 10 11 11 10
13 13 12 12 10 9 9 10 10 10 9 9 9 10 9 9 9 9 8 5 6 8 10 10 9 5 5 8 6 2 10 9 8 9 13 14 12 13 11 12 13 10 7 9 9 8 8 9 11 10 10 10 8 7 6 8 13 13 15 19 21 26 28 28 29 27 27 25 26 25 24 24 23 22 22 20 18 17 15 14 13 14 13 12 12
7 8 7 9 11 11 10 9 7 6 7 7 7 9 10 9 9 8 10 9 8 8 8 10 11 10 9 3 3 5 9 8 5 9 8 8 12 14 11 12 12 9 9 11 10 9 9 10 11 10 10 10 8 8 6 6 8 11 12 15 18 23 25 29 31 30 27 28 25 26 27 25 25 23 23 23 20 20 18 17 16 14 13 12 13
11 11 10 9 10 9 9 9 9 8 8 10 12 10 9 10 12 12 13 13 10 8 6 7 9 12 13 12 8 7 3 2 1 8 4 8 6 9 11 12 12 11 10 11 12 12 11 11 10 10 12 12 11 8 8 6 11 10 10 12 18 16 18 20 25 29 30 28 26 26 26 26 24 24 24 22 22 21 19 18 16 15 13 13 12
9 10 12 10 11 12 12 11 11 9 7 7 6 6 7 10 10 11 11 11 11 9 9 7 7 11 12 14 12 8 8 5 11 10 17 5 5 6 8 9 9 11 12 12 13 12 11 11 11 10 10 12 11 8 7 9 13 14 9 11 16 17 17 19 21 24 27 29 29 28 27 27 26 26 25 23 22 21 20 19 17 15 14 12 11
9 9 10 9 8 10 11 12 11 12 11 10 11 12 11 9 11 10 9 10 11 11 11 11 10 8 9 10 12 13 12 12 12 10 11 11 11 5 7 8 7 9 11 12 13 12 11 9 9 11 9 10 11 9 8 9 10 12 11 18 20 18 16 17 18 21 22 26 31 30 28 29 28 26 26 24 22 21 20 18 17 16 13 13 12
9 11 11 11 9 8 8 9 9 8 7 7 7 7 10 10 10 10 11 9 8 9 9 10 8 9 6 9 11 12 12 13 11 8 8 10 16 12 13 7 9 8 8 11 11 8 9 10 8 11 9 8 11 12 11 10 10 12 12 18 22 22 21 21 19 22 23 25 26 30 33 26 24 25 23 25 23 20 20 19 18 15 15 14 13
9 10 11 12 11 11 9 10 10 10 9 10 11 13 13 12 11 11 10 12 10 11 12 11 9 9 11 9 8 7 9 8 10 11 11 12 15 12 8 9 10 7 10 10 10 9 9 11 11 11 9 10 10 11 11 12 11 11 14 17 19 21 23 23 23 23 26 26 26 23 21 23 23 25 26 24 23 22 21 20 18 17 16 16 13
8 8 9 10 11 11 11 11 10 9 7 7 8 8 8 10 11 11 12 13 10 11 10 11 9 8 9 11 10 8 10 10 11 10 10 8 9 12 13 13 13 14 9 9 8 10 9 10 11 9 11 13 11 9 9 10 14 14 20 21 22 20 22 23 24 24 24 26 21 21 17 17 19 25 25 26 24 25 21 20 19 18 17 15 13
8 8 8 10 10 11 11 12 12 11 12 11 12 9 7 6 7 8 8 11 10 10 8 10 12 10 11 10 10 10 10 11 7 5 8 8 9 15 11 9 9 11 6 5 8 8 9 12 12 12 11 11 11 10 11 11 12 21 18 22 24 23 22 23 24 24 22 23 18 15 14 12 13 17 21 24 25 25 23 22 19 18 16 14 11
8 9 10 10 9 10 10 10 10 10 11 12 11 10 10 9 8 9 10 11 9 10 9 12 13 14 13 13 12 12 13 11 8 9 8 7 8 13 13 8 11 12 9 7 6 7 10 12 10 10 10 10 10 10 11 10 9 16 21 16 19 18 20 22 25 28 25 20 17 14 13 13 13 12 13 16 17 17 20 23 20 17 15 13 8
8 9 8 9 9 9 9 10 10 11 11 11 12 11 12 12 11 10 9 8 8 10 12 13 10 11 9 9 12 13 13 12 12 10 11 10 12 13 12 11 9 14 11 8 6 5 9 11 9 9 9 10 10 9 8 10 11 19 21 14 14 18 20 21 23 24 20 17 17 17 17 17 17 17 17 18 17 17 16 17 17 17 14 11 3
7 8 8 9 10 9 10 10 10 10 11 11 10 11 11 11 11 14 14 13 13 11 11 13 13 13 12 11 11 8 8 7 8 9 8 10 11 10 9 12 12 13 13 9 7 12 11 6 10 10 10 10 9 9 10 8 14 19 16 12 12 17 18 22 22 24 24 18 18 17 18 19 19 19 19 18 18 17 14 12 15 13 9 3 6
7 7 8 8 9 9 10 11 11 11 11 11 12 11 10 11 11 12 15 9 10 15 13 12 15 16 17 13 10 12 9 7 8 8 8 9 9 11 11 11 13 17 14 14 10 10 10 11 8 11 10 10 10 10 12 13 10 17 14 9 10 11 18 21 22 24 25 19 17 19 19 18 19 20 20 19 18 17 17 15 15 9 8 6 5
6 6 8 8 8 8 9 9 10 10 11 11 11 11 11 10 11 13 14 12 11 13 11 11 11 11 12 14 14 13 12 11 9 8 8 8 8 8 8 11 10 13 15 13 16 12 10 11 8 8 12 9 9 8 9 9 12 11 7 8 9 8 13 20 23 23 26 24 18 19 20 20 20 20 19 18 17 17 16 15 13 11 8 6 3
5 6 6 8 8 8 8 9 9 10 10 10 10 11 10 10 11 12 12 11 13 11 10 10 11 8 10 10 11 11 9 7 11 10 7 8 8 9 9 9 9 15 13 14 20 7 9 6 10 4 6 8 8 7 6 6 11 11 7 8 8 9 12 17 21 22 22 23 21 17 18 19 19 18 17 17 17 16 15 14 11 9 6 4 4
5 5 6 6 6 7 8 9 8 9 10 10 10 10 11 11 11 12 13 12 11 12 12 11 11 10 11 12 11 10 10 12 11 10 10 10 9 8 11 9 11 15 15 14 15 17 6 12 4 6 3 6 4 4 4 4 7 11 8 8 8 13 14 13 18 21 23 22 22 18 19 21 20 20 19 19 18 16 14 12 9 7 6 6 8
5 6 5 6 6 7 7 8 9 9 9 9 9 10 10 11 11 11 11 11 13 12 13 10 9 11 13 14 12 11 11 9 9 9 9 10 10 11 11 11 11 10 11 11 15 25 12 9 6 3 5 4 4 6 5 3 5 12 7 8 8 11 9 8 15 20 22 23 22 21 21 19 20 21 21 19 17 15 12 9 8 8 9 9 10
5 6 6 6 6 6 7 7 8 8 9 9 8 9 10 11 11 11 12 12 13 13 12 14 12 13 13 14 14 12 11 13 12 11 11 11 12 12 11 12 13 12 11 12 16 20 15 4 9 6 3 5 5 6 6 5 5 7 9 6 8 8 7 8 9 17 23 23 22 23 22 19 20 21 20 17 15 13 11 10 11 11 10 10 10
5 6 6 5 6 6 6 7 7 8 9 9 9 9 10 11 12 10 11 11 12 14 13 14 11 10 11 12 13 12 11 12 12 10 9 9 8 9 9 9 12 11 11 13 16 16 22 10 3 1 3 5 5 4 8 8 7 6 8 8 8 9 8 8 9 10 21 18 17 24 23 21 20 20 19 17 15 13 12 13 12 12 12 11 9
5 4 5 6 6 6 6 7 7 7 8 8 9 9 10 11 12 11 10 11 13 13 13 13 12 11 11 12 13 11 10 11 12 11 11 12 11 12 13 10 11 12 10 13 13 15 18 17 10 7 6 5 9 7 8 5 3 6 8 9 8 7 7 9 9 7 12 16 16 21 22 22 22 21 18 16 14 15 14 14 14 13 13 12 12
6 5 5 5 6 6 6 7 7 7 7 8 9 9 11 11 11 12 11 12 12 12 13 13 13 12 11 12 13 11 11 13 13 11 11 11 11 11 12 11 12 13 11 11 13 14 13 15 13 9 5 5 6 3 3 3 6 7 7 5 5 5 4 6 6 4 9 15 17 19 21 22 22 20 17 16 16 16 16 15 14 12 12 13 12
6 6 5 4 5 5 5 7 7 7 8 8 9 9 10 11 12 12 12 12 12 12 13 12 12 11 11 12 12 11 11 13 13 12 11 12 11 10 12 11 10 11 10 10 11 11 12 15 15 6 2 4 1 2 5 7 5 5 3 4 5 5 3 3 3 6 12 19 17 20 23 22 19 17 17 17 17 16 15 14 14 15 15 13 11
6 5 5 5 5 6 6 7 7 8 8 8 9 9 9 10 11 11 12 12 13 13 13 13 12 11 13 12 12 11 11 13 14 12 11 12 11 12 13 12 11 10 11 10 9 10 12 15 14 11 4 5 3 4 7 6 8 7 6 4 4 4 7 7 7 7 8 10 11 13 18 17 17 18 17 16 16 16 16 16 17 16 14 12 10
5 6 6 6 5 5 6 6 7 7 8 8 8 8 9 10 10 12 12 13 13 12 11 12 12 11 12 12 12 12 12 13 13 13 11 12 11 13 13 12 12 11 12 11 11 11 12 13 12 12 8 5 7 6 7 5 4 5 9 8 7 7 5 8 7 5 5 8 10 13 10 10 13 12 14 16 16 17 17 18 16 15 13 12 10
6 6 7 7 7 6 6 6 6 6 7 7 8 8 8 9 10 12 12 12 13 12 12 12 12 11 12 12 12 12 13 13 12 12 12 12 11 13 11 11 12 12 12 10 9 10 11 11 12 11 7 5 4 2 5 7 7 5 8 9 12 10 8 7 9 9 8 8 8 8 11 14 13 14 16 16 18 18 18 17 16 13 13 11 11
5 6 6 6 7 7 7 7 7 6 6 7 5 6 9 10 10 11 12 13 13 14 13 12 11 12 12 12 12 12 13 15 17 17 16 15 12 12 12 10 11 11 11 9 9 9 9 10 11 8 7 6 7 8 10 11 14 13 11 6 8 9 9 9 8 7 8 10 7 7 7 8 8 8 9 8 9 14 16 16 12 13 12 12 11
7 7 7 6 6 7 8 8 7 6 6 6 8 12 11 10 11 11 11 13 13 13 13 13 13 11 12 11 12 16 17 18 18 19 20 21 21 17 14 10 10 10 10 10 9 9 9 10 11 9 9 9 10 11 11 11 6 6 9 8 9 8 7 5 4 4 7 10 9 9 8 6 8 8 8 8 8 9 10 8 7 8 10 12 11
8 7 7 8 7 7 8 8 8 6 6 6 12 14 15 16 12 12 12 13 13 13 11 12 13 13 11 12 12 12 13 15 16 19 20 22 21 22 24 22 17 13 10 11 10 9 9 11 10 10 11 12 11 9 12 8 9 10 11 12 9 11 12 13 12 5 5 10 9 9 7 7 8 10 8 8 7 7 7 7 12 12 12 12 11
7 7 7 7 8 8 7 8 8 7 7 8 12 14 15 15 14 12 12 12 12 12 12 12 13 13 13 12 12 10 10 12 12 13 15 19 21 22 23 22 22 22 20 14 11 9 9 10 11 12 10 12 9 9 8 8 9 8 8 9 12 13 12 10 9 10 9 10 10 9 7 6 5 9 8 6 6 7 7 11 14 13 13 12 11
7 7 8 8 8 8 7 9 9 8 8 9 12 13 14 15 16 14 12 12 13 13 13 13 13 13 13 12 12 10 10 14 13 13 13 14 16 20 21 22 21 21 20 22 20 16 10 12 13 13 13 10 10 10 12 13 11 10 10 9 8 8 9 10 8 7 10 8 8 8 8 7 7 8 8 6 6 6 8 12 14 13 12 11 10
6 6 5 7 8 8 8 9 10 9 9 10 13 12 14 15 16 15 12 13 13 14 14 14 12 13 13 13 12 12 11 11 11 11 11 13 13 12 12 12 12 14 18 20 20 22 19 15 13 14 11 9 12 9 12 12 14 13 12 11 12 11 8 9 6 8 8 10 10 8 6 7 7 8 7 6 6 6 8 10 13 12 11 11 10
6 7 7 7 7 7 8 7 9 10 8 10 12 13 15 17 17 15 12 12 12 13 13 13 13 13 13 12 12 13 13 12 10 11 11 12 11 12 12 12 12 12 11 12 12 12 13 13 14 13 12 10 9 6 10 11 14 14 14 16 16 11 8 9 9 7 7 6 8 11 6 8 7 7 6 7 6 6 7 10 11 11 11 10 9
6 6 6 5 7 7 7 7 10 11 10 11 13 13 15 16 18 11 10 11 12 13 13 13 13 13 12 11 11 12 13 13 13 15 15 13 11 13 14 13 12 11 11 11 13 14 13 11 11 12 10 5 7 9 11 11 10 7 6 7 8 9 10 10 7 7 6 5 5 8 7 7 7 7 7 6 7 6 7 7 9 10 10 10 8
7 7 7 7 7 8 9 7 8 10 10 8 10 14 15 16 14 8 9 10 11 12 13 13 13 13 13 13 13 12 12 12 13 16 17 16 12 14 14 14 12 11 11 9 12 16 17 17 18 15 10 10 14 16 18 19 13 11 10 10 9 10 11 9 7 8 7 7 2 3 9 9 7 8 8 5 6 6 6 6 6 9 10 9 8
10 8 8 9 7 6 7 9 8 9 11 12 12 14 15 15 12 10 9 10 11 12 12 13 11 12 14 15 14 13 13 13 15 18 18 15 12 13 13 13 15 12 10 9 5 8 13 15 14 11 11 13 15 19 21 23 22 16 14 13 13 10 10 11 9 9 6 7 5 6 9 7 8 8 8 5 5 3 4 5 6 8 10 8 7
10 9 7 8 9 8 5 7 13 12 10 13 12 11 15 15 11 8 9 9 11 11 11 12 12 11 11 11 14 15 15 15 20 18 18 15 12 12 12 12 13 13 12 7 7 7 6 5 4 6 7 12 11 10 14 23 22 18 12 13 10 9 10 9 8 10 7 3 6 6 7 5 8 7 8 6 3 3 2 4 5 5 5 4 4
Wind_Direction
195 196 196 202 199 199 201 207 202 199 194 203 200 198 201 205 201 202 206 206 198 204 208 213 225 221 239 225 231 239 247 246 243 231 244 244 234 197 222 274 240 228 199 201 211 208 192 189 191 217 200 183 201 211 202 191 209 221 208 206 206 201 200 190 198 193 186 188 181 180 157 164 153 185 166 164 154 133 93 119 102 114 114 86 50
198 200 200 202 201 201 209 209 207 201 201 208 203 208 205 202 207 208 210 216 218 208 218 213 227 234 239 242 237 246 244 247 250 242 233 245 243 224 166 263 246 217 220 225 208 218 211 215 202 200 216 208 212 219 214 207 203 213 209 215 212 213 209 204 207 201 203 196 192 193 194 168 175 197 189 186 164 147 115 121 132 112 43 104 77
206 201 205 204 205 206 213 209 210 204 206 212 195 213 214 216 211 217 217 221 226 204 227 229 226 229 230 243 246 249 249 249 250 250 250 243 246 248 206 210 260 248 232 223 226 225 219 217 214 205 209 209 201 203 201 212 214 219 230 224 214 215 215 212 211 209 211 208 207 202 202 204 190 201 218 199 198 176 154 92 138 124 55 49 63
212 205 209 206 210 211 212 210 214 202 205 209 196 206 218 212 200 239 243 236 234 222 226 242 236 233 227 233 242 249 252 247 245 243 248 252 248 247 243 221 220 249 255 246 235 231 229 227 227 226 209 212 219 230 225 215 197 194 212 219 220 216 215 217 215 216 217 215 215 214 212 208 201 207 214 206 213 199 192 207 281 348 20 16 70
210 210 209 215 216 210 213 213 214 203 199 191 188 198 208 209 201 204 225 234 237 230 215 244 245 236 231 230 236 237 245 252 247 244 241 243 250 248 245 237 232 228 256 265 260 247 234 231 225 223 216 208 211 207 215 227 227 204 194 198 218 219 219 218 220 217 219 218 218 217 214 213 216 211 214 212 222 217 209 216 208 252 303 348 327
216 209 212 221 218 215 218 213 211 194 192 184 202 207 213 211 209 200 212 222 225 229 221 225 229 227 230 221 227 236 237 238 242 245 245 243 247 250 251 245 237 225 229 242 259 265 254 234 223 224 217 209 205 206 213 214 226 233 229 224 229 221 223 222 217 218 218 215 217 217 214 213 216 216 214 217 217 231 233 236 250 260 269 301 316
216 218 216 224 222 220 215 219 201 188 190 199 206 207 216 214 206 211 211 219 229 225 225 232 227 223 225 215 220 220 223 231 230 233 237 242 238 241 249 252 245 232 219 235 244 251 258 269 240 227 222 215 206 214 220 228 233 221 235 224 226 227 226 226 224 224 223 222 217 218 216 220 215 216 214 218 217 219 223 228 245 257 258 236 273
217 221 229 224 227 225 218 210 180 182 198 197 209 217 219 224 218 215 216 219 221 224 219 227 226 228 220 219 223 214 221 218 219 226 232 232 231 231 232 237 244 238 226 227 248 257 264 268 273 242 224 229 233 233 225 224 218 218 223 227 230 230 231 227 226 226 229 228 227 220 217 220 224 221 218 217 222 217 223 232 231 244 257 259 261
205 206 223 222 225 230 225 204 183 196 201 200 204 214 213 214 229 227 234 234 220 228 222 224 230 232 230 227 229 229 232 227 217 223 225 230 232 229 228 232 234 240 236 228 225 236 247 246 249 259 249 240 238 233 233 224 231 239 231 227 222 225 228 223 226 223 229 234 233 230 225 224 225 222 223 227 225 227 228 237 241 241 253 260 261
204 200 203 203 209 216 218 200 198 209 212 206 213 215 218 214 228 226 224 233 233 229 233 234 241 239 243 246 244 241 249 250 241 232 234 235 236 237 234 233 231 226 231 232 226 225 227 229 233 245 246 249 245 236 236 242 242 232 232 236 226 229 232 222 220 220 221 230 230 228 228 229 228 225 223 222 222 223 227 227 237 245 250 252 255
208 202 202 205 210 211 212 202 199 211 214 211 214 221 227 227 232 234 218 228 241 246 247 242 243 250 252 255 265 261 257 252 257 252 246 245 246 247 245 237 234 228 229 230 231 227 224 227 225 226 234 235 246 247 239 235 236 238 238 238 242 234 238 231 217 219 218 222 229 227 225 229 231 234 230 227 225 227 222 222 226 233 235 241 246
204 197 213 217 213 208 212 207 201 192 206 215 212 212 211 213 222 226 207 223 261 258 249 245 249 252 258 257 250 257 257 254 251 249 252 249 246 246 243 241 238 233 229 231 233 231 227 225 226 229 230 231 234 243 247 239 238 245 249 243 242 238 238 228 225 220 220 216 220 231 227 231 232 232 232 231 231 226 222 221 224 228 233 239 244
206 208 208 213 214 209 204 198 189 187 212 223 220 222 214 201 210 204 201 220 235 229 221 197 257 268 241 245 252 236 240 237 243 241 240 240 240 242 242 241 238 235 228 226 233 230 231 233 233 234 231 227 230 235 239 238 230 235 240 236 243 242 230 235 236 226 225 215 218 217 219 224 228 229 233 233 233 228 225 224 224 226 232 237 242
209 217 219 214 211 216 205 205 201 204 209 216 211 211 195 193 206 222 213 219 234 210 183 148 231 234 257 268 254 240 228 228 231 236 237 235 234 236 236 236 236 235 232 228 228 227 229 231 234 236 236 232 231 228 228 236 232 227 230 232 232 245 250 244 237 237 229 218 221 222 214 221 222 223 225 231 233 229 225 227 226 228 237 242 243
215 211 220 223 224 224 222 218 210 207 207 217 217 214 205 201 202 213 214 212 228 194 194 191 235 221 232 291 272 280 243 222 227 235 230 227 225 227 230 232 234 229 227 230 232 227 225 228 228 231 235 236 235 234 236 235 237 236 227 229 229 231 239 248 244 232 231 218 214 220 220 217 221 224 228 224 226 227 226 224 229 229 238 248 246
215 210 208 212 209 217 222 225 217 208 209 214 215 215 210 216 209 209 212 214 209 225 206 208 218 198 239 222 270 291 286 259 249 232 220 225 220 225 226 233 235 226 221 232 235 230 227 224 228 230 232 235 235 239 233 236 247 255 246 232 228 231 235 240 245 241 237 228 222 217 218 218 220 220 224 227 225 225 221 224 229 235 238 243 246
235 219 215 219 215 218 216 218 221 211 210 214 211 211 203 206 201 208 210 221 222 214 206 203 210 218 240 240 218 244 237 272 308 273 227 219 221 228 230 231 231 223 222 233 231 230 228 228 227 229 228 231 230 230 225 228 241 244 245 241 236 234 238 237 244 249 244 240 232 225 221 222 225 224 224 222 219 224 222 222 227 234 239 242 244
245 243 226 213 230 234 235 234 228 215 205 213 222 218 207 207 205 202 209 216 231 223 221 189 208 218 230 243 247 267 312 126 23 289 169 220 219 217 230 235 236 235 231 234 233 232 228 229 223 228 235 238 233 223 222 213 232 237 238 239 233 237 239 243 247 249 252 249 243 226 222 220 223 217 219 228 224 224 226 234 230 229 236 242 251
246 246 250 240 235 232 228 230 232 228 217 226 237 220 210 211 211 209 211 204 207 229 220 211 198 227 226 234 249 260 249 261 260 282 283 247 207 231 229 235 234 235 240 237 238 238 234 230 234 236 237 236 238 224 221 226 230 232 230 237 241 238 235 236 240 246 246 250 249 241 224 223 221 219 218 215 216 223 229 225 224 226 230 239 246
245 249 247 244 239 241 238 233 224 221 214 212 213 212 213 205 211 216 223 222 211 209 216 216 204 226 205 230 238 248 251 248 249 258 276 300 276 224 231 235 231 228 232 236 238 236 240 236 228 233 234 232 238 238 236 233 229 233 231 233 235 235 232 233 235 239 245 246 250 252 247 226 223 224 227 223 217 211 220 226 225 224 227 235 238
248 251 254 255 251 246 243 248 253 245 222 228 233 229 223 221 211 210 218 220 216 218 224 225 202 221 164 215 225 233 233 235 241 231 245 263 272 260 261 210 224 221 222 230 236 230 232 240 230 235 234 238 235 238 235 235 235 234 235 232 234 235 236 234 231 235 237 243 248 252 251 243 227 224 221 225 222 209 216 219 223 224 227 234 234
254 254 256 256 256 253 251 248 244 247 236 227 224 222 221 219 214 210 216 218 216 218 221 227 223 222 220 227 211 219 235 239 232 229 235 226 251 274 260 258 253 220 211 224 221 226 231 236 239 229 229 235 231 229 229 230 233 233 236 235 235 238 237 234 233 229 234 235 239 243 248 239 244 238 224 220 217 205 212 217 216 220 228 230 226
257 254 251 255 257 257 255 255 257 255 250 247 237 227 225 224 225 219 216 217 221 220 221 232 235 236 230 228 230 202 211 220 226 209 213 221 245 265 264 251 255 271 231 201 211 221 219 230 234 228 225 231 232 220 221 228 233 236 238 238 238 237 237 236 234 229 226 229 225 229 226 227 226 236 225 221 218 212 205 210 213 221 226 228 222
261 260 255 250 252 255 255 257 258 259 259 261 262 255 241 226 229 229 229 226 228 228 217 220 219 227 229 224 231 236 233 233 236 189 205 227 237 264 272 277 272 253 254 198 204 213 204 224 225 228 224 226 226 220 222 228 231 233 235 239 238 235 235 234 234 234 223 221 213 201 201 188 201 219 227 222 220 223 214 206 213 221 222 218 213
271 269 266 259 257 259 261 259 260 258 260 262 262 263 263 255 243 228 227 228 221 221 222 224 218 220 229 225 225 222 228 230 231 225 222 217 234 258 263 257 271 284 261 250 233 211 216 228 221 221 225 225 224 220 218 217 222 229 231 237 233 235 235 235 236 236 230 210 196 181 171 168 157 164 176 182 189 197 206 215 215 213 213 215 203
281 279 281 279 266 263 264 267 267 268 268 267 266 266 263 260 256 250 240 234 227 224 229 235 230 231 230 233 231 233 235 230 226 219 224 223 240 244 264 271 255 269 276 231 223 233 226 216 216 223 221 224 222 220 213 219 226 233 228 228 231 228 231 233 235 236 225 192 188 175 165 157 154 156 162 166 175 181 187 199 206 213 209 206 148
284 288 291 284 282 276 270 268 268 268 266 266 266 266 265 264 262 262 262 258 251 235 229 229 236 233 228 230 239 232 232 225 219 223 216 223 228 232 234 263 274 264 267 263 243 216 236 208 203 214 218 216 218 216 212 203 221 229 222 221 227 225 227 229 231 232 231 205 185 175 168 162 158 161 167 170 167 173 174 177 197 195 188 119 63
287 291 292 291 288 286 280 273 273 272 270 268 268 266 265 264 264 264 263 259 261 261 255 241 238 240 243 243 242 245 238 226 216 217 218 221 224 231 230 239 261 277 276 274 255 250 196 232 207 204 213 208 218 214 214 221 227 226 215 212 221 225 222 225 229 230 228 216 187 173 169 167 166 168 167 169 173 169 163 166 174 140 97 86 70
288 298 297 296 292 288 283 281 278 275 273 272 270 268 269 268 264 262 263 264 262 261 258 256 256 252 249 246 245 249 246 242 233 216 223 225 229 230 222 236 239 255 275 280 274 257 255 190 237 207 198 210 216 221 219 209 222 211 190 200 206 212 215 220 227 228 228 224 205 180 174 171 169 165 161 165 164 161 145 127 118 115 109 95 91
301 295 294 296 296 289 283 282 279 275 272 269 267 266 266 266 266 267 267 270 268 267 263 262 261 260 259 258 254 254 247 228 245 241 235 229 228 226 224 222 222 241 252 270 279 249 258 198 219 208 178 211 209 213 206 204 218 202 193 197 203 211 210 214 221 224 224 225 212 199 177 170 162 158 160 150 146 144 135 130 124 117 125 154 204
304 306 301 299 294 292 290 287 285 283 281 279 277 274 268 264 261 261 261 259 258 260 261 259 262 259 259 258 253 251 252 255 253 244 238 234 233 231 233 225 225 232 247 254 266 270 171 262 203 236 186 204 201 212 196 212 200 200 201 203 205 215 211 217 219 222 223 225 208 195 184 174 162 162 157 152 152 144 131 124 126 141 168 202 222
309 306 300 295 293 291 289 288 287 285 283 281 279 276 273 265 266 265 266 266 265 263 266 260 259 257 256 257 253 252 253 244 242 239 240 234 235 239 235 235 233 228 240 247 249 269 254 250 272 208 204 179 191 201 206 183 190 193 203 202 204 206 208 211 220 219 220 223 200 198 193 177 164 159 154 156 152 136 134 143 166 183 196 206 213
321 312 304 300 297 293 290 287 286 286 285 283 279 277 273 271 269 269 271 268 268 268 265 268 258 259 259 258 260 255 254 254 255 251 243 238 235 235 230 225 231 224 221 240 255 266 277 172 254 242 178 179 218 200 204 190 188 200 206 200 194 203 201 203 212 218 222 221 194 188 192 180 169 159 157 157 139 141 152 172 184 194 199 205 206
326 315 308 309 304 301 296 292 289 286 284 284 284 279 277 277 276 274 273 269 266 269 268 266 265 257 260 261 260 259 251 253 256 252 247 247 242 244 238 232 238 234 216 229 243 251 268 261 226 101 220 197 237 161 202 192 197 179 204 201 203 201 202 201 210 216 220 208 185 179 190 186 169 159 154 142 145 149 173 182 187 191 195 187 177
322 313 316 312 309 304 296 292 291 290 290 288 286 281 277 275 277 274 271 272 272 272 270 267 265 263 260 259 262 260 258 256 255 253 251 249 248 245 247 238 241 240 227 226 239 250 260 267 258 241 216 193 217 208 203 205 156 176 194 203 199 198 198 200 208 211 205 194 191 181 190 189 168 158 144 140 153 168 180 190 191 193 192 170 150
328 327 316 317 311 305 298 293 289 287 286 285 287 284 281 280 278 276 276 273 270 269 269 270 269 263 260 262 261 257 256 256 256 253 249 246 244 244 245 240 237 239 232 229 231 248 259 272 267 253 231 194 224 200 160 133 178 196 202 190 177 190 182 197 202 190 195 186 195 187 185 171 161 152 146 158 167 174 186 191 183 175 168 150 147
335 329 327 321 313 308 305 302 301 296 291 287 285 285 283 282 280 278 276 275 273 272 272 272 270 265 263 260 264 260 255 255 258 251 252 248 244 244 245 242 238 238 237 230 235 238 252 262 274 253 177 224 210 146 162 172 168 169 161 174 181 172 117 118 153 181 187 184 173 175 170 168 159 151 162 169 175 178 183 176 162 155 147 150 148
329 325 324 327 319 312 306 303 298 295 293 290 286 285 284 286 285 282 281 278 276 275 274 273 270 266 265 265 263 261 256 254 258 258 252 251 248 244 245 244 240 238 238 238 235 242 248 257 258 261 185 206 183 192 187 166 160 157 151 132 103 131 153 168 173 172 166 166 165 168 170 167 161 165 170 175 176 171 164 157 154 148 150 143 139
326 329 329 324 320 311 306 304 299 298 296 293 291 291 290 288 288 289 285 282 279 278 273 271 268 265 261 262 262 258 256 255 257 258 256 254 248 247 244 243 241 238 238 236 233 238 244 253 255 252 246 205 194 200 184 166 158 160 157 152 169 181 181 164 155 153 138 142 147 151 152 147 161 167 174 171 165 163 161 154 147 150 140 137 148
331 329 327 325 320 312 309 303 300 299 295 292 289 289 288 292 295 292 287 282 283 278 275 272 268 265 263 261 260 257 254 255 255 258 253 255 252 251 245 239 242 238 240 242 239 239 240 244 247 249 225 202 172 114 137 156 171 183 188 175 173 169 168 164 162 155 152 144 141 147 149 151 156 154 161 162 166 162 154 144 145 140 134 144 155
313 315 313 314 313 310 307 306 308 304 297 294 293 301 305 299 293 292 291 287 284 285 283 278 270 266 265 261 259 259 254 255 254 254 254 251 252 256 249 235 239 239 242 242 241 239 243 244 250 243 220 202 192 167 170 184 191 195 185 164 168 162 156 160 169 164 156 149 143 135 138 138 140 151 156 156 160 155 144 139 140 135 143 153 158
318 315 313 306 304 305 307 307 302 299 297 293 296 296 289 291 297 293 291 290 288 285 285 283 279 267 267 267 263 258 257 256 255 255 255 254 251 249 255 244 235 237 238 241 240 238 241 245 246 238 221 219 202 195 193 202 170 135 153 165 158 156 140 134 142 174 168 153 144 145 143 144 139 140 144 145 145 135 140 138 142 144 155 160 155
317 319 315 313 313 310 306 305 303 295 291 291 297 297 299 299 299 296 293 292 289 285 281 281 281 282 273 269 270 266 260 256 256 255 256 256 254 252 250 248 244 238 238 239 241 235 240 245 247 237 231 231 216 197 203 180 174 172 174 172 158 156 166 165 177 155 193 156 152 139 139 151 143 144 142 135 130 133 145 149 146 145 155 157 147
319 313 308 309 309 308 303 300 296 295 290 288 292 295 293 291 292 293 294 292 289 286 283 280 281 281 280 278 272 270 264 261 260 260 256 254 254 254 253 251 248 243 239 236 239 241 234 243 244 237 231 228 218 193 190 163 176 170 168 168 170 171 171 176 173 178 175 161 145 141 136 145 132 135 136 134 126 140 146 149 150 154 156 152 137
307 311 313 312 308 309 305 309 306 301 298 297 300 291 288 292 291 291 291 289 288 285 284 281 281 282 282 280 280 271 266 261 259 257 262 264 258 255 254 255 253 249 246 243 239 239 242 239 242 239 228 221 216 203 192 190 172 166 169 174 178 172 179 174 170 138 153 153 120 134 136 148 141 138 128 122 123 128 145 153 159 157 151 141 129
311 308 312 310 311 315 315 311 306 301 296 302 300 289 288 291 293 293 290 288 285 283 283 282 279 279 278 279 281 278 272 263 258 259 258 260 263 262 258 253 251 250 248 247 247 244 240 239 238 242 233 212 221 205 188 170 171 175 174 182 179 181 173 175 138 128 134 157 154 130 120 151 148 132 127 120 125 135 150 158 161 153 143 132 124
315 317 316 316 312 308 305 304 302 293 285 296 293 288 290 293 295 295 288 284 282 282 281 279 278 275 275 271 270 274 275 271 261 257 260 259 262 261 258 257 252 251 247 243 238 238 238 236 238 241 240 224 221 172 171 176 184 185 186 182 177 167 132 96 88 113 133 161 140 141 137 150 150 126 121 124 127 129 146 153 151 143 134 130 128
303 296 294 286 286 294 293 288 294 290 285 292 295 290 292 292 296 293 287 285 284 283 283 281 281 278 274 269 268 270 271 269 269 262 258 260 260 262 261 260 259 254 252 246 244 244 240 235 234 235 238 199 169 162 169 175 174 154 129 114 126 133 134 138 129 136 137 157 160 157 129 143 152 122 124 123 120 127 147 146 139 134 134 132 134
301 298 292 290 285 288 289 288 281 285 283 279 285 289 289 291 296 293 290 284 281 282 284 286 284 283 277 273 270 269 272 272 271 269 266 260 258 259 261 262 262 261 260 254 243 246 246 239 237 238 223 178 172 169 171 170 163 154 143 146 159 154 151 143 140 144 154 150 138 120 132 135 145 124 121 117 130 131 133 133 132 137 134 134 137
303 296 295 294 284 272 279 286 286 288 286 286 287 287 288 289 288 289 291 291 287 287 287 285 285 282 280 271 267 273 272 272 271 269 268 264 261 260 261 263 263 260 259 259 247 241 243 242 238 219 203 184 177 176 174 171 164 157 159 164 165 154 155 155 143 151 138 152 149 137 128 141 128 121 108 102 98 92 120 120 129 132 131 135 132
295 298 298 296 291 286 263 280 296 290 277 287 288 281 285 289 289 286 289 291 290 289 290 290 288 285 283 279 265 260 266 271 273 273 269 265 263 262 261 262 260 261 262 255 238 242 227 205 187 167 181 181 173 167 172 169 162 170 172 160 148 152 155 152 133 129 119 166 171 162 120 139 132 137 138 140 130 99 93 127 150 163 177 174 161